SCP
0 0 0 0 0 0 0 0 0 0 0 0 0 0 0 0 0 0 0 0 0 0 0 0 0 0 0 0 0 0 0 0 0 0 0 0 0 0 0 0 0 0 0 0 0 0 0 0 0 -0 0 0 0 0
0 0 0 0 0 0 0 0 0 0 0 0 0 0 0 0 0 0 0 0 0 0 0 0 0 -0 -0 -0 0 0 0 0 0 0 0 0 0 0 0 0 0 0 0 0 0 0 0 -0 -0 -0 -0 -0 0 0
0 0 0 0 0 0 0 0 0 0 0 0 0 0 0 0 0 0 0 0 0 0 0 0 0 -0 0 0 0 0 0 0 0 0 0 0 0 0 0 0 0 -0 0 0 0 0 0 0 -0 -0 0 0 0 0
0 0 0 0 0 0 0 0 0 0 0 0 0 0 0 0 0 0 0 0 0 0 0 0 0 0 0 0 0 0 -0 0 0 0 0 0 0 0 0 -0 -0 0 0 0 -0 -0 0 0 0 0 0 0 0 0
0 0 0 0 0 0 0 0 0 0 0 0 0 0 0 0 0 0 0 0 0 0 0 0 0 0 0 0 0 0 0 0 0 0 0 0 -0 -0 -0 -0 -0 0 0 0 0 -0 -0 0 0 -0 -0 0 0 0
0 0 0 0 0 0 0 0 0 0 0 0 0 0 0 0 0 0 0 0 0 0 0 0 0 0 0 0 0 0 0 0 0 0 -0 0 -0 0 0 -0 -0 0 0 0 0 0 0 0 -0 0 -0 0 0 -0
0 0 0 0 0 0 0 0 0 0 0 0 0 0 0 0 0 0 0 0 0 0 0 0 0 0 0 0 0 0 0 0 0 -0 -0 -0 0 0 0 0 -0 -0 -0 -0 0 -0 -0 0 -0 -0 -0 -0 -0 -0
0 0 0 0 0 0 0 0 0 0 0 0 0 0 0 0 0 0 0 0 0 0 0 0 0 0 0 0 0 0 0 -0 -0 -0 0 0 0 0 0 0 -0 -0 -0 0 0 0 -0 -0 -0 -0 0 0 0 0
0 0 0 0 0 0 0 0 0 0 0 0 0 0 0 0 0 0 0 0 0 0 0 0 0 0 0 0 -0 -0 -0 0 0 0 0 0 0 0 0 -0 -0 0 0 0 0 0 -0 -0 -0 0 -0 -0 -0 0
0 0 0 0 0 0 0 0 0 0 0 0 0 0 0 0 0 0 0 0 0 0 0 0 0 -0 0 0 -0 -0 -0 -0 0 0 0 0 0 0 0 0 0 0 -0 0 -0 -0 0 0 0 -0 -0 -0 -0 -0
0 0 0 0 0 0 -0 0 0 0 0 0 0 0 0 0 0 0 0 0 0 0 0 0 0 0 0 0 0 0 0 0 -0 0 -0 0 0 0 0 0 0 -0 -0 -0 -0 0 0 0 0 0 -0 -0 -0 -0
0 0 0 0 0 0 0 0 0 0 0 0 0 0 0 0 0 0 0 0 0 0 0 0 0 0 0 -0 0 0 0 -0 0 0 0 -0 0 -0 0 -0 -0 -0 -0 -0 -0 0 0 0 0 0 -0 -0 0 0
0 0 0 0 0 0 0 0 0 0 0 0 0 0 0 0 0 0 0 0 0 0 0 0 0 0 -0 -0 0 0 -0 0 -0 0 0 0 0 0 -0 -0 -0 -0 -0 -0 -0 0 0 -0 0 0 0 0 0 0
0 0 0 0 0 0 0 0 0 0 0 0 0 0 0 0 -0 0 0 0 0 0 0 0 0 0 0 0 0 0 0 0 0 -0 0 0 -0 -0 -0 -0 0 0 0 0 0 0 0 0 0 0 0 0 0 0
0 0 0 0 0 0 0 -0 -0 0 0 0 0 0 -0 0 0 0 0 0 0 0 0 0 0 0 0 0 0 0 0 0 0 -0 0 -0 -0 -0 -0 -0 0 0 0 0 0 0 0 0 0 0 0 0 0 0
0 0 0 0 0 0 0 0 0 0 0 0 0 -0 0 0 0 -0 0 0 0 0 0 0 0 0 0 0 0 0 0 0 -0 0 0 -0 -0 -0 -0 -0 0 0 0 0 0 0 0 0 0 0 0 0 0 0
0 0 0 0 0 0 0 -0 0 0 0 0 -0 -0 -0 -0 -0 0 0 0 0 0 0 0 0 0 0 0 0 0 0 0 -0 -0 -0 0 -0 -0 -0 0 0 0 0 0 0 0 0 0 0 0 0 0 0 0
0 0 0 0 0 0 0 0 0 0 0 0 0 -0 -0 -0 0 0 0 0 0 0 0 0 0 0 0 0 0 0 0 -0 0 -0 0 0 -0 -0 0 0 0 0 0 0 0 0 0 0 0 0 0 0 0 0
0 0 0 0 0 0 0 0 0 0 0 0 -0 0 -0 -0 0 -0 0 0 0 0 0 0 0 0 0 0 0 0 0 0 -0 0 0 0 0 -0 -0 0 0 0 0 0 0 0 0 0 0 0 0 0 0 0
0 0 0 0 0 0 0 0 0 0 0 0 -0 0 -0 -0 0 0 -0 -0 0 0 0 -0 0 0 0 0 0 0 0 0 0 0 0 0 0 -0 0 0 0 0 0 0 0 0 0 0 0 0 0 0 0 0
0 0 -0 0 0 0 0 0 0 0 0 0 -0 0 -0 -0 -0 0 -0 -0 -0 0 0 0 0 0 0 0 0 0 0 0 0 0 0 0 0 0 0 0 0 0 0 0 0 0 0 0 0 0 0 0 0 0
0 0 0 0 0 -0 0 0 0 0 0 -0 -0 -0 -0 -0 0 0 -0 -0 0 0 0 0 0 0 0 0 0 -0 -0 -0 -0 -0 0 0 0 0 0 0 0 0 0 0 0 0 0 0 0 0 0 0 0 0
0 0 -0 0 0 0 0 -0 0 0 0 0 0 0 0 -0 -0 0 0 0 0 0 0 0 0 0 0 0 0 0 -0 -0 -0 0 0 0 0 0 0 0 0 0 0 0 0 0 0 0 0 0 0 0 0 0
0 0 0 0 0 0 -0 0 0 0 0 -0 -0 -0 0 -0 0 0 -0 0 0 -0 0 0 0 0 0 0 0 0 -0 -0 -0 -0 0 0 0 0 0 0 0 0 0 0 0 0 0 0 0 0 0 0 0 0
0 0 0 0 0 0 0 0 0 0 -0 0 0 0 0 -0 0 0 0 0 0 0 0 0 0 0 0 0 0 -0 -0 -0 0 -0 0 0 0 0 0 0 -0 0 0 0 0 0 0 -0 0 0 0 0 0 0
0 0 0 0 0 0 0 0 0 0 0 0 0 0 0 0 0 0 0 0 0 0 0 0 0 0 0 0 0 0 -0 -0 0 0 0 0 0 0 0 0 0 -0 0 0 0 0 0 0 0 0 0 0 0 0
0 0 0 0 0 0 0 0 0 0 0 0 -0 0 0 0 0 -0 0 0 0 0 0 0 0 0 0 0 0 0 0 0 0 0 0 0 0 0 0 0 0 0 -0 0 0 0 0 0 0 0 0 0 0 0
0 0 0 0 0 0 0 0 0 0 0 0 0 0 0 0 0 0 0 0 0 0 0 0 0 0 0 0 0 0 0 0 0 0 0 0 0 0 0 0 0 0 0 0 0 -0 -0 0 0 0 0 0 0 0
0 0 0 0 0 0 0 0 0 0 0 0 0 0 0 0 0 0 0 0 0 0 0 0 0 0 0 0 0 0 0 0 0 0 0 0 0 0 0 0 0 0 0 0 0 0 0 -0 0 0 0 0 0 0
0 0 0 0 0 0 0 0 0 0 0 0 0 0 0 0 0 0 0 0 0 0 0 0 0 0 0 0 0 0 0 0 0 0 0 0 0 0 0 0 0 0 -0 0 -0 -0 0 0 0 0 0 0 0 0
0 0 0 0 0 0 0 0 0 0 0 0 0 0 0 0 0 0 0 0 0 0 0 0 0 0 0 0 0 0 0 0 0 0 0 0 0 0 0 0 0 0 -0 0 -0 -0 -0 0 0 0 0 0 0 0
0 0 0 0 0 0 0 0 0 0 0 0 0 0 0 0 0 0 0 0 0 0 0 0 0 0 0 0 0 0 0 0 0 0 0 0 0 0 0 0 0 0 0 0 0 0 0 0 0 0 0 0 0 0
0 0 0 0 0 0 0 0 0 0 0 0 0 0 0 0 0 0 0 0 0 0 0 0 0 0 0 0 0 0 0 0 0 0 0 0 0 0 0 -0 -0 -0 -0 0 0 0 0 0 0 0 0 0 0 0
Wind_Speed_500mb
37 35 33 31 30 29 29 27 26 24 23 22 19 17 15 15 19 12 15 17 9 15 33 31 19 23 21 17 13 11 16 12 10 7 8 12 12 13 15 24 27 31 21 25 19 25 24 9 12 4 23 44 43 46
34 33 31 31 31 29 27 26 25 23 21 20 17 17 15 18 19 15 15 23 25 27 43 50 55 57 52 44 34 16 16 10 6 9 7 6 14 15 26 27 21 17 8 16 15 21 47 45 31 37 38 47 45 45
32 32 32 32 32 28 26 25 24 22 21 22 21 21 17 20 21 20 23 24 28 27 58 21 16 12 23 37 39 32 22 15 8 11 11 7 14 15 17 20 28 30 34 21 31 28 36 60 46 33 25 41 44 45
33 34 33 31 27 25 22 21 21 21 22 23 20 18 18 18 14 18 20 22 19 16 14 5 7 20 19 23 32 52 35 11 14 17 12 9 10 15 15 22 28 35 37 31 40 44 44 36 46 54 56 57 48 51
32 30 29 26 24 22 21 22 22 21 19 16 16 18 21 17 22 26 26 28 27 19 15 35 44 8 2 19 31 37 44 40 31 17 10 11 21 18 27 27 23 22 21 13 23 52 51 59 65 71 67 49 38 33
32 28 25 24 21 20 19 17 15 16 17 18 19 18 17 19 25 21 11 6 3 16 11 9 18 13 8 14 23 31 34 35 34 12 14 14 29 13 8 16 31 18 27 40 25 45 60 59 54 32 40 44 35 36
29 29 29 25 23 24 19 17 19 21 22 23 23 23 26 28 21 15 10 3 4 9 8 14 10 5 11 12 16 21 28 24 23 13 16 28 18 15 7 23 33 36 38 43 35 35 31 22 29 37 36 32 41 46
30 31 30 29 27 28 22 17 18 20 21 23 26 28 29 28 29 33 30 37 30 17 10 7 9 11 3 9 9 12 12 22 17 13 8 12 8 12 8 15 39 38 40 32 31 34 34 33 31 32 31 37 41 42
32 28 28 26 25 22 17 14 16 19 22 26 31 30 25 13 14 10 23 26 33 24 7 10 8 10 6 14 13 8 15 10 13 11 9 5 5 8 10 33 41 41 32 37 43 39 35 34 33 33 32 35 43 47
25 24 25 24 19 17 15 17 17 20 23 27 17 6 6 9 15 13 10 9 22 18 15 13 27 19 18 12 8 6 11 6 5 8 7 5 1 14 22 32 38 39 39 40 42 45 46 41 36 33 28 33 46 51
17 19 24 23 23 16 18 21 15 19 18 8 4 4 9 15 5 6 9 13 14 9 15 13 21 17 10 9 6 5 6 1 5 5 4 2 2 11 33 37 36 34 34 38 40 43 41 36 36 34 36 35 47 53
22 22 24 23 24 22 20 15 14 11 8 10 11 19 11 8 11 9 7 11 8 7 12 8 11 16 11 10 10 9 5 5 3 6 3 4 3 31 37 41 40 38 38 37 37 38 37 32 28 29 33 37 38 45
29 28 26 26 22 22 17 17 15 15 14 10 6 7 8 10 9 11 12 8 8 8 6 7 7 12 13 13 11 6 6 2 5 2 5 6 29 35 38 40 43 43 39 34 33 32 32 30 28 27 31 32 31 37
10 13 13 14 14 14 15 12 12 13 9 7 8 8 10 10 11 9 10 6 4 4 9 12 14 8 11 10 5 7 0 5 4 5 8 13 34 36 40 39 40 40 34 32 30 30 32 35 34 32 33 29 33 35
11 10 9 9 11 12 11 11 18 19 8 7 7 8 11 16 12 12 14 5 4 12 13 18 12 11 8 6 1 5 4 4 4 7 9 25 33 33 37 39 36 29 32 33 31 29 31 34 35 35 34 32 33 35
11 10 8 9 10 12 10 10 18 17 7 7 11 11 18 16 18 7 12 9 7 14 18 10 8 6 5 3 6 1 4 5 3 7 19 25 27 30 34 33 24 25 31 32 31 30 30 32 35 37 37 38 34 36
16 8 8 8 7 9 10 7 19 15 11 9 14 23 27 25 23 17 10 11 8 14 8 7 6 3 2 4 4 3 6 11 11 13 21 24 25 30 33 24 20 23 30 32 31 32 32 33 34 38 41 41 36 34
16 12 13 13 10 8 10 7 6 10 14 21 22 24 20 22 26 24 19 16 15 13 10 6 10 7 6 2 7 11 14 10 8 12 17 24 26 28 30 19 18 20 25 29 28 29 33 33 36 38 37 38 37 37
19 14 14 12 8 6 5 7 12 9 21 22 24 28 27 28 28 28 27 23 21 18 10 9 10 11 12 0 9 15 10 8 10 16 18 19 23 27 27 23 16 17 20 26 29 28 29 32 34 36 37 37 41 42
20 20 16 11 8 6 4 6 8 9 11 13 20 26 26 27 22 21 23 25 25 24 19 11 15 22 10 3 6 6 4 5 12 18 21 24 24 28 26 23 22 15 18 20 22 28 25 28 32 33 36 39 38 43
11 12 21 20 13 12 6 6 9 10 15 12 18 19 25 27 28 29 31 32 34 40 31 41 40 35 29 19 13 12 8 8 12 18 23 29 28 26 24 23 20 16 13 17 19 23 26 25 26 28 31 35 39 36
11 15 9 12 8 7 10 13 11 7 11 22 31 28 26 23 25 28 25 32 40 46 49 44 42 40 39 42 38 31 23 21 23 24 24 24 24 25 26 21 21 10 10 14 14 17 19 20 21 25 27 30 32 39
12 12 6 10 11 13 7 12 10 9 7 9 10 8 11 10 9 5 12 24 37 33 32 36 41 41 42 37 33 32 30 25 24 22 22 21 21 21 19 14 14 4 5 9 10 12 12 20 20 21 24 27 30 34
10 5 7 10 14 7 7 10 10 8 8 9 7 8 9 6 5 9 15 25 19 15 15 18 21 27 30 33 37 35 30 22 21 20 19 20 18 15 9 10 6 2 5 5 5 8 11 12 18 17 21 24 29 33
6 8 8 9 8 7 8 7 9 10 8 8 6 9 5 5 6 7 12 14 7 12 10 12 17 22 23 23 25 26 26 24 20 17 15 17 16 15 11 7 2 2 4 2 2 3 7 11 12 14 17 20 25 28
9 10 11 9 8 9 7 5 5 5 6 5 7 8 5 5 6 8 4 8 6 2 5 6 10 19 21 20 21 23 23 20 18 18 16 15 15 15 12 10 6 7 5 3 1 4 4 6 7 10 11 15 23 22
6 8 14 12 10 10 10 14 15 10 7 6 6 4 5 7 6 3 11 6 4 8 9 9 6 10 14 16 18 18 17 15 16 16 14 14 15 15 13 11 4 3 5 4 2 5 5 5 5 6 6 8 10 13
10 8 7 8 8 13 7 7 6 5 5 6 7 5 5 9 6 12 13 16 15 11 14 13 12 13 12 12 12 13 13 15 18 23 22 20 18 14 16 12 7 7 6 7 3 5 7 7 6 6 6 4 3 3
9 10 10 18 13 10 8 8 6 7 6 5 5 5 6 11 26 32 33 11 5 4 4 1 3 8 11 16 16 13 12 13 13 15 16 13 11 16 18 15 11 5 3 8 9 10 10 9 7 6 5 4 5 4
7 7 7 7 5 6 9 15 13 25 27 29 21 20 20 6 33 37 30 20 14 7 5 9 8 7 6 8 8 8 9 9 8 8 10 9 10 12 17 16 13 11 8 10 13 13 12 12 11 9 8 8 6 7
5 4 7 8 8 13 18 25 29 26 18 6 3 8 6 4 23 43 34 32 24 17 17 16 15 13 10 15 17 9 4 9 11 11 13 4 5 8 13 13 10 11 9 8 16 20 17 18 18 17 13 10 10 11
5 6 6 6 8 12 18 13 13 11 13 12 9 8 9 10 19 35 42 39 41 33 27 25 26 24 20 18 17 13 8 9 10 11 8 6 8 10 12 15 14 14 11 11 10 10 15 19 17 17 9 2 4 2
4 5 8 10 8 7 11 11 11 8 15 12 19 27 26 13 16 31 46 34 28 29 30 24 21 20 19 19 23 12 6 13 12 11 9 7 7 5 4 3 5 6 9 8 8 2 7 16 16 11 7 5 5 4
Wind_Direction_500mb
285 286 285 285 286 291 295 297 299 305 308 308 307 303 316 315 317 312 290 328 301 280 284 267 259 263 272 256 279 2 286 189 235 282 287 310 287 325 298 295 290 289 290 288 303 293 280 209 298 345 295 305 299 297
280 280 281 282 283 286 287 289 292 294 298 301 304 309 311 304 311 308 291 272 285 255 273 281 273 262 254 252 269 262 292 303 336 251 247 299 276 290 290 287 294 286 268 292 284 296 305 297 273 284 286 286 295 297
277 278 279 278 281 283 285 287 288 290 292 295 293 285 276 282 287 287 282 307 308 296 304 277 275 286 233 237 232 238 239 231 239 290 304 270 259 282 274 296 308 300 308 294 291 276 301 308 300 290 305 305 297 291
273 275 276 277 278 279 280 282 283 290 293 294 298 299 292 285 284 275 285 284 278 288 283 304 282 288 284 241 230 223 232 242 271 270 268 257 261 285 280 293 291 290 303 285 285 279 299 301 308 315 315 307 296 292
274 275 273 273 273 276 279 283 287 289 289 292 299 295 291 273 282 286 286 282 261 236 303 299 303 274 253 213 225 223 228 238 252 250 242 258 265 271 266 270 274 292 303 293 286 313 305 299 306 305 305 304 305 301
271 269 264 272 269 275 279 278 285 290 291 290 284 284 274 280 294 309 293 270 173 189 275 293 320 285 235 224 226 223 222 227 227 223 239 249 249 266 275 276 292 325 316 313 295 300 299 293 296 310 304 308 302 302
260 254 255 259 260 265 271 272 278 283 281 280 282 279 282 285 280 246 300 206 241 276 271 288 278 215 266 241 232 223 214 213 217 228 236 249 250 209 262 276 318 324 307 294 302 305 315 315 306 311 312 321 312 302
255 255 250 245 254 266 262 267 285 293 296 295 291 290 286 279 272 265 260 255 258 258 247 273 279 259 203 260 277 198 194 200 221 237 248 243 223 207 260 314 308 307 309 307 310 319 311 321 323 324 325 324 322 317
259 257 250 260 257 255 252 261 288 300 297 300 302 300 291 254 240 243 239 243 224 213 242 215 285 330 344 278 287 231 182 209 210 217 225 242 185 209 263 294 300 305 300 300 311 311 317 318 320 325 325 331 330 328
243 248 241 250 265 264 257 267 284 299 306 315 316 276 247 217 239 255 212 217 195 210 228 250 263 263 306 343 283 282 199 237 232 192 180 230 1 279 309 312 305 310 312 314 315 323 329 324 318 314 311 329 333 335
227 245 239 246 253 261 259 270 288 299 323 319 265 256 301 294 302 263 235 203 179 219 212 233 246 263 271 253 285 271 305 264 252 91 270 302 152 307 327 327 332 334 335 337 335 333 326 316 308 304 312 312 324 332
242 237 245 257 253 241 255 274 281 283 290 261 279 282 273 233 227 244 216 173 220 252 172 212 225 221 248 228 242 227 245 218 355 295 336 340 11 328 327 332 330 336 338 344 345 344 338 330 319 306 314 319 327 331
247 253 260 259 240 237 248 266 263 269 281 284 241 241 207 198 235 233 207 204 198 187 211 222 254 216 207 222 251 266 233 354 271 23 357 5 326 332 334 332 333 342 348 349 350 355 359 358 352 341 335 335 336 341
235 241 237 239 257 251 247 243 245 253 240 236 234 239 234 195 233 233 278 354 65 221 310 304 289 246 217 215 223 264 46 256 49 348 31 354 335 331 332 336 339 345 351 352 352 354 358 359 357 355 352 352 347 2
222 227 241 248 241 225 240 255 229 221 221 240 241 242 230 261 277 304 281 247 259 297 306 308 262 245 224 250 23 278 149 111 43 33 352 332 330 330 336 344 348 357 360 357 356 355 357 360 4 4 4 4 359 8
216 244 258 238 249 238 230 253 202 195 216 235 234 262 260 266 259 238 260 251 298 316 302 254 265 244 234 169 234 234 78 86 80 31 2 349 346 346 350 353 2 10 11 10 10 9 9 11 14 15 16 16 15 14
215 220 234 238 225 244 251 266 207 195 208 219 235 239 261 282 282 281 270 272 293 301 292 309 265 332 293 252 168 154 95 95 74 29 0 359 351 351 356 1 11 16 18 19 21 20 21 20 19 19 21 19 17 14
219 234 237 231 226 257 239 236 229 214 231 240 251 264 247 257 276 272 263 261 264 259 257 288 319 263 258 229 133 128 123 104 60 6 352 2 360 3 5 7 14 15 16 20 23 23 25 27 25 23 20 20 20 22
222 220 207 212 223 226 222 237 209 253 239 259 266 268 266 268 261 260 258 253 249 248 260 233 246 245 245 255 132 129 123 71 16 356 350 3 5 4 4 5 354 6 15 19 24 24 25 26 27 25 24 25 25 23
205 194 199 213 220 216 242 241 254 260 260 266 266 267 263 261 262 253 246 234 219 213 215 226 240 251 272 248 165 127 118 17 358 348 347 353 357 356 356 357 358 350 3 11 18 28 26 29 30 26 28 27 29 27
201 206 197 207 208 219 250 253 247 248 286 274 284 283 276 269 252 251 241 230 221 226 238 239 244 242 242 240 233 245 261 302 327 332 322 323 331 341 343 348 353 356 5 13 21 24 29 29 27 26 27 31 30 34
177 179 180 188 213 218 252 233 242 302 265 269 287 266 266 271 260 246 236 234 229 236 238 243 241 238 239 241 245 248 259 276 288 299 304 305 312 329 338 338 347 2 26 24 25 30 35 31 40 30 33 33 32 31
188 189 198 202 214 212 251 197 235 224 253 263 272 265 249 243 245 218 237 232 236 249 246 241 240 240 241 242 244 246 248 260 269 273 282 287 291 310 322 336 355 33 49 31 41 40 44 44 32 43 36 39 38 40
191 201 223 212 204 244 198 218 220 249 249 250 247 254 267 254 244 251 261 257 251 237 231 231 232 232 230 232 235 236 235 241 242 248 260 268 275 299 301 322 358 75 77 58 61 60 55 51 49 44 47 47 48 47
218 220 220 230 226 250 239 230 214 216 246 235 253 255 260 221 238 248 266 265 231 235 238 243 229 218 217 214 213 214 212 214 224 242 245 248 261 289 284 249 221 172 155 85 64 99 71 63 62 59 58 63 56 52
228 206 208 215 209 213 240 266 242 268 305 270 254 268 247 239 237 253 320 27 21 340 296 290 223 210 209 208 196 196 199 208 219 239 250 249 255 272 269 233 215 169 187 203 180 158 127 93 82 85 73 64 64 60
252 235 212 233 264 267 266 266 270 266 251 249 250 269 248 235 241 88 318 28 335 306 258 253 252 217 209 197 198 195 195 208 221 232 247 258 257 269 226 221 208 119 174 174 175 168 158 147 132 117 108 87 74 68
252 276 245 249 243 243 255 262 261 248 271 283 286 258 286 347 352 330 329 344 327 294 267 260 246 205 200 198 190 202 216 225 236 247 257 257 255 239 215 212 204 175 174 182 178 173 164 151 144 154 153 143 142 111
247 250 270 262 247 238 238 224 242 238 244 271 287 292 335 331 324 351 4 359 337 339 2 344 145 176 186 181 188 204 223 229 236 235 233 246 202 206 203 202 200 203 207 194 182 174 180 177 175 174 186 201 222 213
264 238 265 277 254 243 226 218 242 261 266 271 269 278 295 339 34 37 59 63 56 60 80 116 129 139 156 170 191 198 202 195 210 240 270 216 193 187 198 211 219 227 240 210 208 197 190 201 214 235 242 235 251 269
277 251 262 259 265 272 275 288 291 292 288 286 248 241 282 329 35 47 65 69 72 79 84 97 116 131 146 160 152 145 165 193 201 205 201 218 238 213 206 215 228 231 245 239 223 228 229 227 229 236 244 250 269 277
245 235 279 288 293 324 321 336 340 15 35 73 56 57 58 52 33 21 37 59 63 61 74 84 91 90 101 106 107 102 133 165 168 165 171 168 179 190 209 230 242 251 250 238 244 244 243 249 266 268 266 142 327 195
251 254 262 274 287 315 342 357 16 31 36 44 39 41 51 58 46 17 18 32 47 60 64 73 74 76 83 102 89 59 100 119 127 141 149 140 133 141 134 199 226 233 210 199 152 143 298 303 268 215 209 244 193 226
Wind_Speed_850mb
37 35 33 31 30 29 29 27 26 24 23 22 19 17 15 15 19 12 15 17 9 15 33 31 19 23 21 17 13 11 16 12 10 7 8 12 12 13 15 24 27 31 21 25 19 25 24 9 12 4 23 44 43 46
34 33 31 31 31 29 27 26 25 23 21 20 17 17 15 18 19 15 15 23 25 27 43 50 55 57 52 44 34 16 16 10 6 9 7 6 14 15 26 27 21 17 8 16 15 21 47 45 31 37 38 47 45 45
32 32 32 32 32 28 26 25 24 22 21 22 21 21 17 20 21 20 23 24 28 27 58 21 16 12 23 37 39 32 22 15 8 11 11 7 14 15 17 20 28 30 34 21 31 28 36 60 46 33 25 41 44 45
33 34 33 31 27 25 22 21 21 21 22 23 20 18 18 18 14 18 20 22 19 16 14 5 7 20 19 23 32 52 35 11 14 17 12 9 10 15 15 22 28 35 37 31 40 44 44 36 46 54 56 57 48 51
32 30 29 26 24 22 21 22 22 21 19 16 16 18 21 17 22 26 26 28 27 19 15 35 44 8 2 19 31 37 44 40 31 17 10 11 21 18 27 27 23 22 21 13 23 52 51 59 65 71 67 49 38 33
32 28 25 24 21 20 19 17 15 16 17 18 19 18 17 19 25 21 11 6 3 16 11 9 18 13 8 14 23 31 34 35 34 12 14 14 29 13 8 16 31 18 27 40 25 45 60 59 54 32 40 44 35 36
29 29 29 25 23 24 19 17 19 21 22 23 23 23 26 28 21 15 10 3 4 9 8 14 10 5 11 12 16 21 28 24 23 13 16 28 18 15 7 23 33 36 38 43 35 35 31 22 29 37 36 32 41 46
30 31 30 29 27 28 22 17 18 20 21 23 26 28 29 28 29 33 30 37 30 17 10 7 9 11 3 9 9 12 12 22 17 13 8 12 8 12 8 15 39 38 40 32 31 34 34 33 31 32 31 37 41 42
32 28 28 26 25 22 17 14 16 19 22 26 31 30 25 13 14 10 23 26 33 24 7 10 8 10 6 14 13 8 15 10 13 11 9 5 5 8 10 33 41 41 32 37 43 39 35 34 33 33 32 35 43 47
25 24 25 24 19 17 15 17 17 20 23 27 17 6 6 9 15 13 10 9 22 18 15 13 27 19 18 12 8 6 11 6 5 8 7 5 1 14 22 32 38 39 39 40 42 45 46 41 36 33 28 33 46 51
17 19 24 23 23 16 18 21 15 19 18 8 4 4 9 15 5 6 9 13 14 9 15 13 21 17 10 9 6 5 6 1 5 5 4 2 2 11 33 37 36 34 34 38 40 43 41 36 36 34 36 35 47 53
22 22 24 23 24 22 20 15 14 11 8 10 11 19 11 8 11 9 7 11 8 7 12 8 11 16 11 10 10 9 5 5 3 6 3 4 3 31 37 41 40 38 38 37 37 38 37 32 28 29 33 37 38 45
29 28 26 26 22 22 17 17 15 15 14 10 6 7 8 10 9 11 12 8 8 8 6 7 7 12 13 13 11 6 6 2 5 2 5 6 29 35 38 40 43 43 39 34 33 32 32 30 28 27 31 32 31 37
10 13 13 14 14 14 15 12 12 13 9 7 8 8 10 10 11 9 10 6 4 4 9 12 14 8 11 10 5 7 0 5 4 5 8 13 34 36 40 39 40 40 34 32 30 30 32 35 34 32 33 29 33 35
11 10 9 9 11 12 11 11 18 19 8 7 7 8 11 16 12 12 14 5 4 12 13 18 12 11 8 6 1 5 4 4 4 7 9 25 33 33 37 39 36 29 32 33 31 29 31 34 35 35 34 32 33 35
11 10 8 9 10 12 10 10 18 17 7 7 11 11 18 16 18 7 12 9 7 14 18 10 8 6 5 3 6 1 4 5 3 7 19 25 27 30 34 33 24 25 31 32 31 30 30 32 35 37 37 38 34 36
16 8 8 8 7 9 10 7 19 15 11 9 14 23 27 25 23 17 10 11 8 14 8 7 6 3 2 4 4 3 6 11 11 13 21 24 25 30 33 24 20 23 30 32 31 32 32 33 34 38 41 41 36 34
16 12 13 13 10 8 10 7 6 10 14 21 22 24 20 22 26 24 19 16 15 13 10 6 10 7 6 2 7 11 14 10 8 12 17 24 26 28 30 19 18 20 25 29 28 29 33 33 36 38 37 38 37 37
19 14 14 12 8 6 5 7 12 9 21 22 24 28 27 28 28 28 27 23 21 18 10 9 10 11 12 0 9 15 10 8 10 16 18 19 23 27 27 23 16 17 20 26 29 28 29 32 34 36 37 37 41 42
20 20 16 11 8 6 4 6 8 9 11 13 20 26 26 27 22 21 23 25 25 24 19 11 15 22 10 3 6 6 4 5 12 18 21 24 24 28 26 23 22 15 18 20 22 28 25 28 32 33 36 39 38 43
11 12 21 20 13 12 6 6 9 10 15 12 18 19 25 27 28 29 31 32 34 40 31 41 40 35 29 19 13 12 8 8 12 18 23 29 28 26 24 23 20 16 13 17 19 23 26 25 26 28 31 35 39 36
11 15 9 12 8 7 10 13 11 7 11 22 31 28 26 23 25 28 25 32 40 46 49 44 42 40 39 42 38 31 23 21 23 24 24 24 24 25 26 21 21 10 10 14 14 17 19 20 21 25 27 30 32 39
12 12 6 10 11 13 7 12 10 9 7 9 10 8 11 10 9 5 12 24 37 33 32 36 41 41 42 37 33 32 30 25 24 22 22 21 21 21 19 14 14 4 5 9 10 12 12 20 20 21 24 27 30 34
10 5 7 10 14 7 7 10 10 8 8 9 7 8 9 6 5 9 15 25 19 15 15 18 21 27 30 33 37 35 30 22 21 20 19 20 18 15 9 10 6 2 5 5 5 8 11 12 18 17 21 24 29 33
6 8 8 9 8 7 8 7 9 10 8 8 6 9 5 5 6 7 12 14 7 12 10 12 17 22 23 23 25 26 26 24 20 17 15 17 16 15 11 7 2 2 4 2 2 3 7 11 12 14 17 20 25 28
9 10 11 9 8 9 7 5 5 5 6 5 7 8 5 5 6 8 4 8 6 2 5 6 10 19 21 20 21 23 23 20 18 18 16 15 15 15 12 10 6 7 5 3 1 4 4 6 7 10 11 15 23 22
6 8 14 12 10 10 10 14 15 10 7 6 6 4 5 7 6 3 11 6 4 8 9 9 6 10 14 16 18 18 17 15 16 16 14 14 15 15 13 11 4 3 5 4 2 5 5 5 5 6 6 8 10 13
10 8 7 8 8 13 7 7 6 5 5 6 7 5 5 9 6 12 13 16 15 11 14 13 12 13 12 12 12 13 13 15 18 23 22 20 18 14 16 12 7 7 6 7 3 5 7 7 6 6 6 4 3 3
9 10 10 18 13 10 8 8 6 7 6 5 5 5 6 11 26 32 33 11 5 4 4 1 3 8 11 16 16 13 12 13 13 15 16 13 11 16 18 15 11 5 3 8 9 10 10 9 7 6 5 4 5 4
7 7 7 7 5 6 9 15 13 25 27 29 21 20 20 6 33 37 30 20 14 7 5 9 8 7 6 8 8 8 9 9 8 8 10 9 10 12 17 16 13 11 8 10 13 13 12 12 11 9 8 8 6 7
5 4 7 8 8 13 18 25 29 26 18 6 3 8 6 4 23 43 34 32 24 17 17 16 15 13 10 15 17 9 4 9 11 11 13 4 5 8 13 13 10 11 9 8 16 20 17 18 18 17 13 10 10 11
5 6 6 6 8 12 18 13 13 11 13 12 9 8 9 10 19 35 42 39 41 33 27 25 26 24 20 18 17 13 8 9 10 11 8 6 8 10 12 15 14 14 11 11 10 10 15 19 17 17 9 2 4 2
4 5 8 10 8 7 11 11 11 8 15 12 19 27 26 13 16 31 46 34 28 29 30 24 21 20 19 19 23 12 6 13 12 11 9 7 7 5 4 3 5 6 9 8 8 2 7 16 16 11 7 5 5 4
Wind_Direction_850mb
285 286 285 285 286 291 295 297 299 305 308 308 307 303 316 315 317 312 290 328 301 280 284 267 259 263 272 256 279 2 286 189 235 282 287 310 287 325 298 295 290 289 290 288 303 293 280 209 298 345 295 305 299 297
280 280 281 282 283 286 287 289 292 294 298 301 304 309 311 304 311 308 291 272 285 255 273 281 273 262 254 252 269 262 292 303 336 251 247 299 276 290 290 287 294 286 268 292 284 296 305 297 273 284 286 286 295 297
277 278 279 278 281 283 285 287 288 290 292 295 293 285 276 282 287 287 282 307 308 296 304 277 275 286 233 237 232 238 239 231 239 290 304 270 259 282 274 296 308 300 308 294 291 276 301 308 300 290 305 305 297 291
273 275 276 277 278 279 280 282 283 290 293 294 298 299 292 285 284 275 285 284 278 288 283 304 282 288 284 241 230 223 232 242 271 270 268 257 261 285 280 293 291 290 303 285 285 279 299 301 308 315 315 307 296 292
274 275 273 273 273 276 279 283 287 289 289 292 299 295 291 273 282 286 286 282 261 236 303 299 303 274 253 213 225 223 228 238 252 250 242 258 265 271 266 270 274 292 303 293 286 313 305 299 306 305 305 304 305 301
271 269 264 272 269 275 279 278 285 290 291 290 284 284 274 280 294 309 293 270 173 189 275 293 320 285 235 224 226 223 222 227 227 223 239 249 249 266 275 276 292 325 316 313 295 300 299 293 296 310 304 308 302 302
260 254 255 259 260 265 271 272 278 283 281 280 282 279 282 285 280 246 300 206 241 276 271 288 278 215 266 241 232 223 214 213 217 228 236 249 250 209 262 276 318 324 307 294 302 305 315 315 306 311 312 321 312 302
255 255 250 245 254 266 262 267 285 293 296 295 291 290 286 279 272 265 260 255 258 258 247 273 279 259 203 260 277 198 194 200 221 237 248 243 223 207 260 314 308 307 309 307 310 319 311 321 323 324 325 324 322 317
259 257 250 260 257 255 252 261 288 300 297 300 302 300 291 254 240 243 239 243 224 213 242 215 285 330 344 278 287 231 182 209 210 217 225 242 185 209 263 294 300 305 300 300 311 311 317 318 320 325 325 331 330 328
243 248 241 250 265 264 257 267 284 299 306 315 316 276 247 217 239 255 212 217 195 210 228 250 263 263 306 343 283 282 199 237 232 192 180 230 1 279 309 312 305 310 312 314 315 323 329 324 318 314 311 329 333 335
227 245 239 246 253 261 259 270 288 299 323 319 265 256 301 294 302 263 235 203 179 219 212 233 246 263 271 253 285 271 305 264 252 91 270 302 152 307 327 327 332 334 335 337 335 333 326 316 308 304 312 312 324 332
242 237 245 257 253 241 255 274 281 283 290 261 279 282 273 233 227 244 216 173 220 252 172 212 225 221 248 228 242 227 245 218 355 295 336 340 11 328 327 332 330 336 338 344 345 344 338 330 319 306 314 319 327 331
247 253 260 259 240 237 248 266 263 269 281 284 241 241 207 198 235 233 207 204 198 187 211 222 254 216 207 222 251 266 233 354 271 23 357 5 326 332 334 332 333 342 348 349 350 355 359 358 352 341 335 335 336 341
235 241 237 239 257 251 247 243 245 253 240 236 234 239 234 195 233 233 278 354 65 221 310 304 289 246 217 215 223 264 46 256 49 348 31 354 335 331 332 336 339 345 351 352 352 354 358 359 357 355 352 352 347 2
222 227 241 248 241 225 240 255 229 221 221 240 241 242 230 261 277 304 281 247 259 297 306 308 262 245 224 250 23 278 149 111 43 33 352 332 330 330 336 344 348 357 360 357 356 355 357 360 4 4 4 4 359 8
216 244 258 238 249 238 230 253 202 195 216 235 234 262 260 266 259 238 260 251 298 316 302 254 265 244 234 169 234 234 78 86 80 31 2 349 346 346 350 353 2 10 11 10 10 9 9 11 14 15 16 16 15 14
215 220 234 238 225 244 251 266 207 195 208 219 235 239 261 282 282 281 270 272 293 301 292 309 265 332 293 252 168 154 95 95 74 29 0 359 351 351 356 1 11 16 18 19 21 20 21 20 19 19 21 19 17 14
219 234 237 231 226 257 239 236 229 214 231 240 251 264 247 257 276 272 263 261 264 259 257 288 319 263 258 229 133 128 123 104 60 6 352 2 360 3 5 7 14 15 16 20 23 23 25 27 25 23 20 20 20 22
222 220 207 212 223 226 222 237 209 253 239 259 266 268 266 268 261 260 258 253 249 248 260 233 246 245 245 255 132 129 123 71 16 356 350 3 5 4 4 5 354 6 15 19 24 24 25 26 27 25 24 25 25 23
205 194 199 213 220 216 242 241 254 260 260 266 266 267 263 261 262 253 246 234 219 213 215 226 240 251 272 248 165 127 118 17 358 348 347 353 357 356 356 357 358 350 3 11 18 28 26 29 30 26 28 27 29 27
201 206 197 207 208 219 250 253 247 248 286 274 284 283 276 269 252 251 241 230 221 226 238 239 244 242 242 240 233 245 261 302 327 332 322 323 331 341 343 348 353 356 5 13 21 24 29 29 27 26 27 31 30 34
177 179 180 188 213 218 252 233 242 302 265 269 287 266 266 271 260 246 236 234 229 236 238 243 241 238 239 241 245 248 259 276 288 299 304 305 312 329 338 338 347 2 26 24 25 30 35 31 40 30 33 33 32 31
188 189 198 202 214 212 251 197 235 224 253 263 272 265 249 243 245 218 237 232 236 249 246 241 240 240 241 242 244 246 248 260 269 273 282 287 291 310 322 336 355 33 49 31 41 40 44 44 32 43 36 39 38 40
191 201 223 212 204 244 198 218 220 249 249 250 247 254 267 254 244 251 261 257 251 237 231 231 232 232 230 232 235 236 235 241 242 248 260 268 275 299 301 322 358 75 77 58 61 60 55 51 49 44 47 47 48 47
218 220 220 230 226 250 239 230 214 216 246 235 253 255 260 221 238 248 266 265 231 235 238 243 229 218 217 214 213 214 212 214 224 242 245 248 261 289 284 249 221 172 155 85 64 99 71 63 62 59 58 63 56 52
228 206 208 215 209 213 240 266 242 268 305 270 254 268 247 239 237 253 320 27 21 340 296 290 223 210 209 208 196 196 199 208 219 239 250 249 255 272 269 233 215 169 187 203 180 158 127 93 82 85 73 64 64 60
252 235 212 233 264 267 266 266 270 266 251 249 250 269 248 235 241 88 318 28 335 306 258 253 252 217 209 197 198 195 195 208 221 232 247 258 257 269 226 221 208 119 174 174 175 168 158 147 132 117 108 87 74 68
252 276 245 249 243 243 255 262 261 248 271 283 286 258 286 347 352 330 329 344 327 294 267 260 246 205 200 198 190 202 216 225 236 247 257 257 255 239 215 212 204 175 174 182 178 173 164 151 144 154 153 143 142 111
247 250 270 262 247 238 238 224 242 238 244 271 287 292 335 331 324 351 4 359 337 339 2 344 145 176 186 181 188 204 223 229 236 235 233 246 202 206 203 202 200 203 207 194 182 174 180 177 175 174 186 201 222 213
264 238 265 277 254 243 226 218 242 261 266 271 269 278 295 339 34 37 59 63 56 60 80 116 129 139 156 170 191 198 202 195 210 240 270 216 193 187 198 211 219 227 240 210 208 197 190 201 214 235 242 235 251 269
277 251 262 259 265 272 275 288 291 292 288 286 248 241 282 329 35 47 65 69 72 79 84 97 116 131 146 160 152 145 165 193 201 205 201 218 238 213 206 215 228 231 245 239 223 228 229 227 229 236 244 250 269 277
245 235 279 288 293 324 321 336 340 15 35 73 56 57 58 52 33 21 37 59 63 61 74 84 91 90 101 106 107 102 133 165 168 165 171 168 179 190 209 230 242 251 250 238 244 244 243 249 266 268 266 142 327 195
251 254 262 274 287 315 342 357 16 31 36 44 39 41 51 58 46 17 18 32 47 60 64 73 74 76 83 102 89 59 100 119 127 141 149 140 133 141 134 199 226 233 210 199 152 143 298 303 268 215 209 244 193 226